FLOCK 2K-05 (42864 NORAD) Tracking and Keplerian Element Data

This shows tracking and keplerian element data for the satellite.

Feedback or suggestion? Click here.




ElementValue
Catalog42864
NameFLOCK 2K-05
Epoch Orbit3279
Epoch Day45.45234647
Epoch Year2018
RAAN308.2461
Inclination96.9931
Eccentricity0.0010281
Argument of Perigee186.9798
Mean Anonmoly173.1305
Mean Motion15.35637313
Decay Rate7.323E-05
L11 42864U 17042AR 18045.45234647 .00007323 00000-0 21317-3 0 9993
L22 42864 96.9931 308.2461 0010281 186.9798 173.1305 15.35637313 32795

Live tracking and technical data element details for FLOCK 2K-05 (NORAD 42864). FLOCK 2K-05 can be tracked NOW for your location showing map with azimuth and elevation plus other details from your city location.

Track the satellite on the map from your city or location and see movement details for azimuth, elevation, latitude, longitude, range, height, and movement on the map or in text.







IsCatalogInMostPopularTable: catalog: 42864, numindb: 73
Update: records affected: 1



GetName: 42864 FLOCK 2K-05

Hit Count: updated at: Fri, 20 Jul 2018 07:07:20 GMT